Find Starlink 2015

NORAD ID: 47638 Int'l Des: 2021-012 Owner: SPXS Country: US Constellation: starlink operational
LEOCIRCULAR

实时位置

正在加载3D地球...

关于 Starlink 2015

正在加载描述...

即将过境

Passes for default location (London). Set your location on the main map for personalized predictions.

高度历史

Loading altitude history...

两行轨道根数

1 47638U 21012U 26124.10129800 .00046769 00000-0 14923-2 0 9993
2 47638 53.1592 74.8847 0001893 131.7069 228.4095 15.32066796289847
Epoch: May 4, 2026 • Age: 9 hours

当前状态

高度 488.9 km
速度 7.62 km/s
星下点 -52.78°S, 39.92°W
发射日期 Feb 16, 2021
运行时间 5.2 years
类型 internet

技术详情

分类 Payload
质量 260.00 kg
干质量 248.00 kg
总质量 260.00 kg
长度 0.20 m
直径 2.80 m
跨度 9.00 m
形状 Box + pan
制造商 SPXS
平台类型 Starlink
阶段状态 In Orbit
所有者/国家 SPXS/US

Most Searched